This is the latest recevied weather packets stored in our database for station/object KC1TEM-13. If no packets are shown the sender has not sent any weather packets the latest 10 day(s).
| Time | Temp. | Humidity | Pressure | Rain* | Wind** | Luminosity | Snow |
|---|---|---|---|---|---|---|---|
| 1787924361 | 23.33° C | 87% | 1016.6 hPa | 0 mm | - | 153 W/m² | - |
| 1787924055 | 23.33° C | 87% | 1016.6 hPa | 0 mm | - | 140 W/m² | - |
| 1787923750 | 23.33° C | 87% | 1016.5 hPa | 0 mm | - | 140 W/m² | - |
| 1787923445 | 22.78° C | 87% | 1016.5 hPa | 0 mm | - | 116 W/m² | - |
| 1787923140 | 22.78° C | 88% | 1016.6 hPa | 0 mm | - | 149 W/m² | - |
| 1787922835 | 22.78° C | 88% | 1016.5 hPa | 0 mm | - | 174 W/m² | - |
| 1787922534 | 22.78° C | 88% | 1016.8 hPa | 0 mm | - | 178 W/m² | - |
| 1787922234 | 22.78° C | 89% | 1016.4 hPa | 0 mm | - | 160 W/m² | - |
| 1787921931 | 22.78° C | 90% | 1016.4 hPa | 0 mm | - | 146 W/m² | - |
| 1787921626 | 22.22° C | 91% | 1016.4 hPa | 0 mm | - | 174 W/m² | - |
| 1787921325 | 22.22° C | 92% | 1016.6 hPa | 0 mm | - | 146 W/m² | - |
| 1787921022 | 21.67° C | 93% | 1016.6 hPa | 0 mm | - | 163 W/m² | - |
| 1787920717 | 21.67° C | 94% | 1016.7 hPa | 0 mm | - | 145 W/m² | - |
| 1787920416 | 21.11° C | 95% | 1016.7 hPa | 0 mm | - | 146 W/m² | - |
| 1787920113 | 21.11° C | 96% | 1016.8 hPa | 0 mm | - | 150 W/m² | - |
| 1787919808 | 20.56° C | 97% | 1016.6 hPa | 0 mm | - | 97 W/m² | - |
| 1787919507 | 20.56° C | 97% | 1016.6 hPa | 0 mm | - | 91 W/m² | - |
| 1787919204 | 20.56° C | 97% | 1016.4 hPa | 0 mm | - | 97 W/m² | - |
| 1787918903 | 20.56° C | 97% | 1016.6 hPa | 0 mm | - | 77 W/m² | - |
| 1787918599 | 20.56° C | 97% | 1016.7 hPa | 0 mm | - | 67 W/m² | - |
| 1787918296 | 20° C | 97% | 1016.5 hPa | 0 mm | - | 61 W/m² | - |
| 1787917992 | 20° C | 97% | 1016.5 hPa | 0 mm | - | 64 W/m² | - |
| 1787917692 | 20° C | 97% | 1016.5 hPa | 0 mm | - | 51 W/m² | - |
| 1787917388 | 20° C | 97% | 1016.2 hPa | 0 mm | - | 48 W/m² | - |
| 1787917083 | 20° C | 97% | 1016.2 hPa | 0 mm | - | 52 W/m² | - |
* Rain latest hour (hover to see other rain measurements)
** Current wind speed in m/s (hover to see current wind gust speed)